Regional Weather Roundup
Issued by NWS Little Rock, AR

Home | Current Version | Previous Version | Text Only | Print | Product List | Glossary Off
Versions: 1 2 3 4 5 6 7 8 9 10 11 12 13 14 15 16 17 18 19 20 21 22 23 24 25 26 27 28 29 30 31 32 33 34 35 36 37 38 39 40 41 42 43 44 45 46 47 48 49 50

000
ASUS44 KLZK 260405
RWRLZK

WEATHER ROUNDUP FOR ARKANSAS
NATIONAL WEATHER SERVICE LITTLE ROCK AR
1100 PM CDT SAT APR 25 2015

NOTE: "FAIR" INDICATES FEW OR NO CLOUDS BELOW 12,000 FEET WITH NO
SIGNIFICANT WEATHER AND/OR OBSTRUCTIONS TO VISIBILITY.

ARZ001-003-010-029-260500-
NORTHWEST ARKANSAS

CITY           SKY/WX    TMP DP  RH WIND       PRES   REMARKS
FAYETTEVILLE   CLEAR     58  54  86 CALM      29.72R
FORT SMITH     CLEAR     71  53  52 NW8       29.66R
HARRISON       CLEAR     62  54  74 NW7       29.71R
BENTONVILLE    CLEAR    N/A N/A N/A N8        29.72R
ROGERS         CLEAR     60  54  80 N6        29.73R
SILOAM SPGS    CLEAR     61  48  63 N7        29.73R
HIGHFILL       CLEAR     60  52  74 N10       29.71R
$$

ARZ004-005-016-260500-
NORTH CENTRAL ARKANSAS

CITY           SKY/WX    TMP DP  RH WIND       PRES   REMARKS
BATESVILLE     PTCLDY    68  54  60 NW6       29.64R
FLIPPIN        CLEAR     66  54  63 NW6       29.66R
MTN HOME       CLEAR     64  53  67 NW5       29.67R
$$

ARZ040-041-260500-
WEST CENTRAL ARKANSAS

CITY           SKY/WX    TMP DP  RH WIND       PRES   REMARKS
MENA           CLEAR     70  52  52 W3        29.70R
MOUNT IDA      CLEAR     64  52  64 CALM      29.66R
$$

ARZ009-017-025-026-028-260500-
NORTHEAST ARKANSAS

CITY           SKY/WX    TMP DP  RH WIND       PRES   REMARKS
CORNING          N/A     68  55  64 NW5       29.62R
JONESBORO      MOCLDY    68  55  63 N5        29.61R
NEWPORT        PTCLDY    69  53  56 W6        29.62R
WALNUT RIDGE   CLEAR     66  54  63 NW6       29.62R
BLYTHEVILLE    MOCLDY    67  60  78 NE13      29.61R
$$

ARZ022-023-033-042-044-260500-
CENTRAL ARKANSAS

CITY           SKY/WX    TMP DP  RH WIND       PRES   REMARKS
LITTLE ROCK    CLEAR     68  52  56 SW8       29.64R
N LITTLE ROCK  CLEAR     72  56  56 W5        29.64R
SEARCY         CLEAR     64  56  75 CALM      29.64R
HOT SPRINGS    CLEAR     67  52  58 NW3       29.67R
RUSSELLVILLE   PTCLDY    61  57  87 CALM      29.63R
CLINTON        FAIR      59  57  94 CALM      29.67R
$$

ARZ036-260500-
EAST ARKANSAS

CITY           SKY/WX    TMP DP  RH WIND       PRES   REMARKS
WEST MEMPHIS   CLEAR     71  61  70 SW7       29.59R
$$

ARZ050-053-066-070-073-260500-
SOUTHWEST ARKANSAS

CITY           SKY/WX    TMP DP  RH WIND       PRES   REMARKS
ARKADELPHIA    FAIR      64  64 100 CALM      29.67R
CAMDEN         CLEAR     59  55  88 CALM      29.66S
TEXARKANA      CLEAR     66  57  72 SW5       29.68R
EL DORADO      CLEAR     62  58  86 VRB3      29.68R
DE QUEEN       CLEAR     58  57  97 CALM      29.66R
$$

ARZ056-057-069-260500-
SOUTHEAST ARKANSAS

CITY           SKY/WX    TMP DP  RH WIND       PRES   REMARKS
PINE BLUFF     CLEAR     68  54  60 W5        29.65R
STUTTGART      CLEAR     70  55  60 SW10      29.64R
MONTICELLO     CLEAR     71  55  56 W6        29.65S

$$





USA.gov is the U.S. government's official web portal to all federal, state and local government web resources and services.